Погода в Куре

Погода в Куре : погода сейчас, прогноз погоды и архив. Всё, что Вы хотите узнать о погоде в Куре!

Поиск расширенной информации на нашем сайте:

Другие новости

Новости СМИ2

Главная страница сайта

Новости сайта

03.07.2017

Напоминаем, что на нашем специализированном сайте Метеоцентр.Азия вы можете получить высокодетализированные автоматические прогнозы погоды по пунктам России, СНГ и мира в авиационном формате (включающие направление и скорость ветра, видимость, явления погоды, количество и форму облачности, нижнюю и верхнюю границу облачности).


Погода в Куре - сегодня

Время (UTC), дата Ветер
(°,м/с) 
Видим.   Явления Облачность Т
(°С)
Тd
(°С)
f(%) Тe
(°С)
Pmin
(гПа)
dP
(гПа)
Po
(мм)
O2
(г/м3)
Тmin Tmax R s Состояние
почвы
18 17.04.18 010 (С) н/о    н/о 
+3.6 -2.5 64 +3  1006.3  -0.6  729  290           
00 18.04.18 350 (С) 10 км  {дождь}  ясно 
+9.4 -1 48 +10  1005.9  -0.3  729  284           
03 18.04.18 260 (З) 10 км    6/6 600 м 
[Cu med, cong]
+16.9 -5.8 21 +17  1003.4  -1.6  728  277           
06 18.04.18 270 (З) 2{10}  20000 м    8/3 600 м верхняя 
[Cu hum|Cs]
+18.6 -9.9 13 +20  1002.4  -0.8  727  275           
12 18.04.18 020 (С) н/о    н/о 
+4.6 -5.8 47 +5  1006.7  2.1  729  290           
15 18.04.18 тихо ()   20000 м    ясно 
+0.1 -6.3 62 1009.2  1.8  731  295           
18 18.04.18 290 (З) н/о    н/о 
-1.9 -5.6 76 -1  1010.3  0.8  731  297           
00 19.04.18 040 (СВ) 20000 м    8/0 верхняя 
[Cs]
+7.7 -1.9 51 +8  1009.8  0.1  732  287           
03 19.04.18 240 (ЮЗ) 20000 м    10/0 верхняя 
[Cs]
+14 -2.2 33 +15  1007.7  -1.3  731  280           
06 19.04.18 200 (Ю) 20000 м    10/3 600 м средняя 
[Cu hum|As trans]
+15.9 -1.7 30 +16  1005.3  -2.1  729  278           
12 19.04.18 тихо ()   н/о    н/о 
+3.5 -3.4 61 +4  1010.1  1.8  732  291           
15 19.04.18 тихо ()   20000 м    ясно 
-1.3 -4.9 76 -1  1010.6  732  297           
18 19.04.18 тихо ()   н/о    н/о 
-1.5 -4.5 80 -2  1010.6  -0.1  732  297           
00 20.04.18 210 (ЮЗ) 10 км    3/1 600 м верхняя 
[Cu hum|Ci fib]
+14 -3.1 30 +15  1007.5  -0.7  731  280           
03 20.04.18 230 (ЮЗ) 10 км    10/1 600 м средняя 
[Cu hum|As trans]
+18.2 -3.6 22 +19  1006.2  -0.8  730  276           
06 20.04.18 270 (З) 3{11}  10 км    10/0 средняя 
[Ac As]
+17.4 -3.8 23 +18  1004.8  -1.4  729  277           
15 20.04.18 тихо ()   20000 м  {дождь}  10/0 средняя 
[As op]
+8.3 +3.8 73 +8  1002.9  -2.5  727  284           
18 20.04.18 тихо ()   н/о    н/о 
+6.3 +6.3 100 +6  1001.6  -1.4  726  285           
00 21.04.18 020 (С) 20000 м    8/0 верхняя 
[Cs]
+10.3 -11.3 21 +10  1005.1  3.2  729  284  +4.6         
03 21.04.18 320 (СЗ) 20000 м    4/0 верхняя 
[Cc]
+13.5 -15.1 12 +14  1006.7  1.9  730  281           
12 21.04.18 тихо ()   н/о    н/о 
+4.7 -8.6 37 +5  1017.3  4.1  737  293           
15 21.04.18 тихо ()   20000 м    ясно 
-0.6 -6.8 63 -1  1020.9  2.8  739  299           
18 21.04.18 тихо ()   н/о    н/о 
-3.5 -6.9 77 -4  1023  1.6  740  303           
00 22.04.18 240 (ЮЗ) 20000 м    6/5 600 м верхняя 
[Cu hum|Ci fib]
+8 -7.8 32 +8  1021.6  -0.9  740  291           
03 22.04.18 330 (СЗ) 20000 м    6/6 600 м 
[Cu hum]
+10.1 -14.6 16 +10  1020.2  -1.1  740  289           
Время (UTC), дата Ветер
(°,м/с) 
Видим.   Явления Облачность Т
(°С)
Тd
(°С)
f(%) Тe
(°С)
Pmin
(гПа)
dP
(гПа)
Po
(мм)
O2
(г/м3)
Тmin Tmax R s Состояние
почвы

Для получения пояснительной информации подведите курсор к названию столбца.

ПОГОДА в Куре - архив

Всё, что Вы хотите узнать о погоде в Куре - удобно и подробно!

Выберите нужную дату (начиная с 1 января 2015* года) и нажмите кнопку "Найти".
Будут отображены архивные сводки погоды по пункту Кур, начиная с указанной даты.


Отображать данные в формате CSV (для использования в таблицах Excel)


Внимание! Наш архив погоды предназначен исключительно для личного некоммерческого использования в познавательных целях. Если Вам необходимы официальные справки о состоянии погоды (для производственных, юридических, коммерческих и т.п. целей), обращайтесь в органы Росгидромета.

*Примечание: данная дата относится к архиву по метеостанциям СССР (Россия, СНГ, Балтия).
Архив по метеостанциям Зарубежной Европы и Азии (кроме Китая) хранится 10 дней, по другим регионам земного шара (Китай, Африка, Америка, Австралия, Океания) - 1 день.

Кур - район местоположения метеостанции


Название, широта, долгота, высота метеостанции:
Кур 49.9°ш. 134.6°д. 283 м над ур. моря [Российская Федерация]

Дополнительная информация

В oтличие oт бoльшинства пoгoдных сайтoв мы публикуем пoдрoбную метеoинфoрмацию в детальнoм прoфессиoнальнoм фoрмате.

Характеристики температуры и влажнoсти вoздуха измеряются на высoте 2 м в тени вдали oт зданий и деревьев.
Скoрoсть ветра измеряется на высoте 10 м (на урoвне рoста челoвека скoрoсть ветра ниже в 1.5-2 раза). Если метеoстанция нахoдится в гoрoде или в лесу, тo скoрoсть ветра занижена на 2-4 м/с пo сравнению с oткрытым местoм. Скoрoсть ветра над акватoриями крупных рек и oзёр, а также на вершинах хoлмoв на 2-5 м/с выше, чем в oбычных услoвиях.
Атмoсфернoе давление в разных тoчках местнoсти мoжет значительнo oтличаться oт давления на метеoстанции, в зависимoсти oт услoвий рельефа (при пoдъёме на 10 м давление пoнижается примернo на 1 мм рт.ст.).